Pebble Beach, California
Current Conditions -  °F | °C
As of 4:54 AM on Wednesday 22 Oct 2014 (Local Time) from KMRY Reporting Station
Clear Clear  
Wind Chill: 52°   Ceiling: Unl
Heat Index: 52°   Visibility: 10mi
Dew Point: 45°   Wind: 3mph
Humidity: 77%   Direction: 60°ENE
Pressure: 30.03"   Gusts: NA
Location:  36.57°N, 121.95°W
Report Text: KMRY 221154Z AUTO 06003KT 10SM CLR 11/07 A3003 RMK AO2 SLP180 T01110072 10156 20106 56004
Loading
Personal Weather Stations






























Interactive Weather Map
Tropical Storm Tracking
New forecast layout! Learn more

10-Day Weather Forecast

Advertisements
Track Severe Weather on mobile